SCP
0 -0 -0 -0 -0 -0 -0 -0 -0 -0 -0 -0 -0 -0 -0 -0 -0 -0 0 0 0 0 0 0 0 0 0 0 0 0 0 0 0 0 0 0 0 0 0 0 0 0 0
0 -0 -0 -0 -0 0 0 0 0 0 -0 -0 -0 -0 -0 -0 -0 0 0 0 0 0 0 0 0 0 0 0 0 0 0 0 0 0 0 0 0 0 0 0 0 0 0
0 -0 -0 -0 -0 0 0 0 0 -0 -0 -0 -0 -0 -0 -0 0 0 0 0 0 0 0 0 0 0 0 0 0 0 0 0 0 0 0 0 0 0 0 0 0 0 0
-0 0 0 -0 0 0 0 0 -0 -0 0 -0 -0 -0 0 0 0 0 0 0 0 0 0 0 0 0 0 0 0 0 0 0 0 0 0 0 0 0 0 0 0 0 0
0 0 0 0 0 0 0 0 0 0 -0 0 0 0 0 0 0 0 0 0 0 0 0 0 0 0 0 0 0 0 0 0 1 0 0 0 0 0 0 0 0 0 0
-0 0 0 0 0 0 0 0 0 -0 -0 -0 0 0 0 0 0 -0 -0 0 0 0 0 0 0 0 0 0 0 0 0 0 0 0 0 0 0 0 0 0 0 0 0
-0 0 0 0 0 0 0 -0 -0 -0 -0 0 0 0 -0 -0 -0 -0 -0 -0 -0 0 0 0 0 0 0 0 0 0 0 0 0 0 1 1 0 0 0 0 0 0 0
-0 -0 0 0 0 0 0 -0 0 -0 -0 -0 -0 -0 -0 -0 -0 -0 -0 0 0 0 0 0 0 0 0 0 0 0 0 0 0 0 0 0 1 0 0 0 0 0 0
-0 0 -0 -0 0 0 -0 0 -0 -0 -0 -0 -0 -0 -0 -0 -0 -0 0 0 0 0 -0 0 0 0 0 0 0 0 0 0 0 0 0 0 0 0 0 1 1 0 0
-0 -0 -0 0 -0 0 -0 -0 -0 -0 -0 -0 -0 -0 -0 -0 -0 -0 -0 -0 -0 -0 -0 -0 -0 -0 -0 -0 0 0 0 0 0 0 0 -0 0 0 0 0 0 0 0
-0 0 0 -0 -0 0 0 0 0 0 0 0 -0 -0 -0 -0 -0 -0 -0 -0 -0 -0 -0 -0 -0 -0 -0 0 0 0 0 0 0 0 0 -0 -0 0 0 0 0 0 0
0 0 0 0 0 0 0 0 0 0 -0 -0 -0 -0 -0 -0 -0 -0 0 -0 -0 -0 -0 -0 -0 0 0 0 0 0 0 -0 -0 0 0 0 -0 -0 -0 -0 -0 -0 -0
0 0 0 0 0 0 0 0 0 0 0 0 0 0 -0 -0 -0 -0 0 -0 -0 -0 0 0 0 0 0 0 0 0 0 -0 -0 -0 0 0 0 0 0 0 0 0 -0
0 0 0 0 0 0 0 0 0 0 0 0 0 0 -0 -0 -0 -0 -0 -0 -0 -0 -0 0 0 0 0 0 0 0 0 0 0 0 -0 0 0 0 0 0 0 0 0
0 0 0 0 0 0 0 0 0 0 0 0 -0 -0 -0 -0 -0 -0 -0 -0 -0 -0 -0 0 0 0 0 0 0 0 0 0 0 0 0 -0 -0 0 0 0 0 0 0
0 0 0 0 0 0 0 0 0 0 0 -0 -0 -0 -0 -0 -0 -0 -0 -0 -0 -0 -0 0 0 0 0 0 0 0 0 0 0 0 0 0 -0 0 0 0 0 0 0
0 0 0 0 0 0 0 0 0 0 -0 -0 -0 -0 -0 -0 -0 -0 -0 -0 -0 -0 -0 0 0 0 0 0 0 0 0 0 0 0 0 0 0 -0 -0 0 0 0 0
0 0 0 0 0 0 0 0 0 0 0 -0 -0 -0 -0 -0 -0 -0 -0 -0 -0 -0 -0 0 0 0 0 0 0 0 0 0 0 0 0 -0 -0 0 0 -0 0 0 0
0 0 0 0 0 0 0 0 0 0 0 0 -0 -0 -0 -0 -0 -0 -0 -0 -0 -0 -0 -0 0 0 0 0 0 0 0 0 0 0 0 0 0 0 -0 0 0 0 0
0 0 0 0 0 0 0 0 0 0 0 0 0 0 0 -0 -0 -0 -0 -0 -0 -0 -0 -0 0 0 0 0 0 0 0 0 0 0 0 0 0 0 0 0 0 0 0
0 0 0 0 0 0 0 0 0 0 0 0 0 0 0 -0 -0 -0 -0 -0 -0 -0 -0 0 0 0 0 -0 -0 0 0 0 0 0 0 0 0 0 0 0 0 0 0
0 0 0 0 0 0 0 0 0 0 0 0 0 0 0 0 -0 -0 -0 -0 -0 -0 0 0 0 0 0 0 0 0 0 0 0 0 0 0 0 0 0 0 0 0 0
0 0 0 0 0 0 0 0 0 0 0 0 0 0 0 0 -0 -0 -0 -0 -0 -0 -0 0 0 0 -0 0 0 -0 -0 -0 -0 0 0 0 0 0 -0 -0 -0 -0 -0
0 0 0 0 0 0 0 0 0 0 0 0 0 0 0 0 -0 -0 -0 -0 -0 -0 0 -0 0 0 0 0 -0 -0 0 -0 -0 -0 0 -0 -0 0 0 -0 -0 -0 -0
0 0 0 0 0 0 0 0 0 0 0 0 0 0 0 0 -0 -0 -0 -0 -0 -0 0 0 0 0 0 0 -0 -0 -0 -0 -0 -0 -0 -0 -0 0 0 0 0 0 0
0 0 0 0 0 0 0 0 0 0 0 0 0 0 0 0 -0 -0 -0 -0 -0 -0 0 0 0 0 0 0 0 0 0 -0 -0 -0 -0 -0 0 0 0 0 0 0 0
Wind_Speed_500mb
18 23 29 34 38 39 40 40 39 41 40 37 37 39 39 40 40 42 44 47 46 42 41 42 37 32 26 32 41 40 36 38 42 37 38 37 38 36 30 26 30 28 29
19 27 33 38 40 41 40 40 40 37 35 34 34 35 36 36 36 37 40 42 45 47 48 48 49 51 43 37 37 43 44 41 46 45 40 40 37 34 30 28 28 26 28
22 27 35 38 40 40 40 37 38 32 30 29 30 29 29 30 31 32 33 34 38 42 45 49 54 56 56 50 45 44 46 49 45 46 46 42 35 39 32 30 25 30 31
23 32 37 39 39 39 38 36 34 30 28 27 26 26 26 26 27 28 30 32 34 37 40 43 48 55 60 61 60 53 48 47 49 46 46 43 40 48 43 34 27 31 32
27 33 37 39 38 35 31 28 24 22 25 27 27 28 29 28 29 29 29 30 30 32 36 41 47 52 58 64 67 66 58 47 48 47 43 45 45 47 46 39 36 35 36
28 34 36 37 35 31 30 26 24 26 25 27 30 29 28 28 31 35 38 35 33 30 29 33 37 43 50 58 64 67 65 57 48 49 45 50 53 48 50 46 39 37 35
30 35 38 35 30 26 23 24 25 26 31 34 35 39 45 48 46 45 45 41 41 41 41 42 45 46 44 44 55 60 61 57 46 51 49 51 57 57 52 47 43 38 33
31 36 33 28 23 21 23 23 30 36 40 41 40 43 46 48 41 38 39 37 35 37 39 40 43 46 46 48 44 46 52 50 49 41 49 49 57 57 52 54 41 38 36
31 31 29 24 21 22 25 35 38 38 39 38 38 41 45 45 43 38 34 33 35 38 40 40 40 41 43 43 47 47 45 43 50 32 33 51 35 46 46 47 41 38 33
30 29 23 22 26 30 35 35 35 35 34 33 33 35 35 40 39 41 40 42 40 38 38 40 45 46 48 52 49 43 27 17 33 30 25 26 25 56 57 31 18 22 25
25 22 21 25 29 30 28 29 31 31 29 28 26 30 34 34 35 39 49 48 43 44 45 47 44 43 46 55 54 31 17 23 8 10 18 23 21 9 13 9 46 51 46
22 20 21 24 25 25 24 23 23 25 27 31 33 31 32 35 38 41 47 50 44 46 47 45 47 39 42 49 48 37 28 30 23 16 22 23 15 16 18 19 29 38 46
17 18 20 21 23 22 22 22 22 25 26 28 31 30 33 35 39 45 49 49 50 43 45 46 49 44 35 38 44 38 27 25 27 28 17 18 14 17 21 20 26 33 45
13 13 17 20 20 20 21 21 23 23 25 27 30 31 34 39 43 47 50 49 48 47 41 42 44 42 41 27 34 34 28 21 25 19 13 8 9 3 12 16 19 26 28
10 12 15 15 14 16 15 18 20 22 26 31 31 34 37 41 43 46 46 47 46 44 41 38 33 35 36 36 26 24 23 22 21 20 18 17 13 12 17 27 32 36 30
6 8 10 10 10 13 14 16 17 22 27 29 32 36 38 42 43 45 46 46 45 45 43 38 31 28 27 30 27 22 24 22 22 25 24 19 15 19 30 28 37 41 45
2 5 7 7 8 11 13 12 16 22 26 28 31 35 39 42 45 47 49 50 51 49 44 35 32 27 23 34 29 30 29 29 29 32 33 35 33 31 31 33 29 34 43
2 4 5 6 10 12 10 13 17 22 24 26 30 35 38 41 43 45 47 50 51 50 49 46 34 25 24 33 30 35 34 36 41 47 52 54 53 49 47 48 48 44 41
7 7 7 8 14 11 12 12 16 19 21 24 28 32 36 38 41 43 45 47 48 48 48 49 44 28 27 24 26 31 33 45 52 55 58 60 58 58 59 56 53 51 48
13 11 11 14 17 10 9 10 14 16 18 22 26 30 33 37 39 41 45 45 46 48 49 51 53 40 23 16 14 24 35 45 50 56 61 58 55 56 62 66 68 66 59
18 15 15 19 18 11 6 6 9 10 15 18 23 29 32 34 37 41 44 44 47 53 52 47 45 47 45 23 15 11 15 36 51 57 60 56 52 66 65 65 67 68 71
24 20 20 22 21 14 7 2 5 8 12 16 21 26 29 31 36 41 43 46 48 46 45 47 46 45 45 46 27 17 17 14 34 48 55 52 49 59 62 73 75 77 78
31 25 23 25 23 19 11 4 2 6 8 15 18 23 27 32 37 39 42 45 45 48 49 48 47 46 45 40 39 26 12 13 29 26 49 51 49 54 56 63 70 74 76
36 30 27 27 26 20 12 7 5 6 7 10 14 20 25 31 33 37 41 43 45 46 45 48 46 44 41 40 37 35 29 26 17 22 34 42 40 43 57 64 66 65 68
39 32 29 29 27 21 13 10 10 10 9 9 11 17 23 25 28 33 38 41 41 44 44 42 41 41 42 41 42 36 28 22 28 15 21 35 33 37 48 61 67 66 62
41 36 33 33 29 22 16 13 14 13 11 9 10 15 18 21 25 32 37 38 40 41 41 43 42 40 38 39 39 41 42 27 25 23 21 24 34 38 40 54 70 72 67
Wind_Direction_500mb
329 339 345 345 343 338 334 330 327 326 323 322 317 311 308 303 299 295 293 291 291 288 284 282 281 285 300 293 283 283 280 269 271 268 258 254 254 248 242 258 269 258 233
339 343 343 344 342 336 333 336 334 333 333 332 334 328 326 320 314 307 300 295 291 288 286 284 283 280 279 282 287 274 273 272 268 264 259 255 251 236 238 261 263 241 220
340 341 342 342 338 337 340 345 340 338 339 337 339 337 337 334 330 323 315 308 299 291 287 284 283 281 279 272 273 277 270 267 270 266 258 249 247 235 246 251 256 237 221
344 343 340 340 338 340 344 344 341 343 349 353 356 355 352 346 337 328 322 318 310 303 299 292 284 279 276 273 269 267 269 268 264 263 258 246 235 245 245 244 243 233 224
344 340 340 340 339 343 345 346 341 2 8 5 0 2 359 352 347 343 336 329 319 313 306 301 296 291 284 277 272 268 263 267 264 260 253 241 233 236 237 239 233 228 232
343 341 338 343 346 347 348 355 4 16 13 11 11 8 4 2 2 1 1 358 355 344 331 314 303 297 290 287 281 272 264 259 264 254 248 242 231 228 233 233 226 231 233
340 343 346 346 349 350 357 1 18 24 23 19 18 15 13 10 8 8 5 7 359 352 348 339 336 331 324 304 290 285 271 256 255 251 241 241 237 229 223 223 224 228 231
344 345 347 346 351 359 12 14 28 27 22 20 17 20 17 11 10 12 12 8 7 3 357 355 352 352 348 340 327 293 285 255 245 257 249 244 234 229 227 222 224 233 236
346 343 350 353 359 10 15 25 29 25 21 19 20 20 17 14 16 11 13 20 24 19 17 12 12 11 6 358 346 336 301 276 234 263 265 255 232 235 215 220 228 241 248
343 346 348 2 13 17 22 26 27 24 24 22 22 21 19 21 21 19 21 26 29 30 28 27 22 22 23 16 3 352 350 314 244 263 278 303 292 220 258 257 266 306 275
339 349 3 15 19 22 28 31 30 27 33 29 27 25 25 26 28 28 30 31 33 34 36 31 26 31 26 26 13 10 359 15 335 269 302 329 336 255 287 317 314 279 275
346 357 14 22 27 27 33 41 40 38 40 42 42 38 35 30 25 29 32 32 35 41 40 35 34 32 32 28 22 33 24 8 23 15 360 353 339 304 285 296 273 260 244
346 11 23 27 33 39 49 50 48 46 44 44 40 35 33 28 25 29 31 30 33 35 37 35 36 29 25 25 26 27 27 29 33 31 32 30 354 310 302 300 288 269 254
357 23 32 31 38 48 56 55 49 44 44 41 37 32 35 33 29 30 31 30 31 31 30 31 33 33 30 18 37 28 39 56 63 66 30 25 59 239 265 282 277 283 288
6 30 35 40 52 63 64 58 53 47 42 39 35 35 33 34 31 29 29 30 31 31 29 29 30 31 39 39 49 42 40 45 35 29 10 350 336 304 289 278 273 271 276
14 48 51 59 71 78 74 70 56 50 42 35 34 35 33 35 35 35 34 33 31 29 30 30 31 33 47 55 41 28 29 22 19 26 25 -0 330 315 299 288 289 288 279
53 81 83 91 103 103 87 69 59 46 36 33 37 41 41 42 41 40 41 40 39 38 36 35 38 54 56 65 64 57 48 38 25 22 11 11 4 350 341 336 311 294 279
167 127 128 130 130 126 91 80 52 43 40 42 46 47 46 46 45 42 42 42 42 41 42 44 47 60 66 68 57 45 32 21 18 14 11 3 357 354 347 343 330 323 314
197 175 170 158 147 131 114 69 52 48 48 53 53 52 50 48 48 47 46 46 45 46 45 47 48 58 65 66 50 43 44 34 28 22 14 7 5 358 358 357 354 348 340
207 195 187 179 169 153 120 66 49 51 60 60 58 56 53 50 50 50 49 49 50 51 50 49 53 54 56 57 53 52 48 34 25 19 14 13 12 14 10 5 2 359 356
210 202 196 192 187 178 148 55 42 55 69 66 63 58 55 53 52 51 51 50 51 51 53 53 49 51 57 71 77 73 43 29 22 19 14 13 15 7 16 17 12 7 3
212 207 202 198 195 190 184 120 63 74 73 69 63 60 57 55 54 53 52 51 50 52 53 55 57 58 51 46 47 37 16 15 12 11 14 16 19 20 19 23 23 20 16
211 207 203 199 194 191 191 189 96 97 85 70 64 60 58 55 53 51 52 52 49 48 48 49 50 53 59 60 62 56 15 355 353 6 13 23 29 27 26 22 21 19 18
206 204 200 192 188 189 196 191 159 155 116 94 75 66 61 57 56 53 53 51 49 49 48 47 46 47 52 55 57 60 58 43 10 351 7 19 22 25 24 18 12 12 14
206 202 194 188 187 191 194 193 168 165 151 116 91 79 69 64 60 58 56 54 52 51 50 51 52 49 48 49 51 51 45 36 33 15 0 16 20 17 16 15 16 14 11
203 200 195 192 193 195 196 195 182 173 165 140 111 87 85 77 69 62 59 54 53 53 52 51 50 50 51 50 51 50 50 42 21 23 6 20 19 13 14 16 19 18 14
Wind_Speed_850mb
18 23 29 34 38 39 40 40 39 41 40 37 37 39 39 40 40 42 44 47 46 42 41 42 37 32 26 32 41 40 36 38 42 37 38 37 38 36 30 26 30 28 29
19 27 33 38 40 41 40 40 40 37 35 34 34 35 36 36 36 37 40 42 45 47 48 48 49 51 43 37 37 43 44 41 46 45 40 40 37 34 30 28 28 26 28
22 27 35 38 40 40 40 37 38 32 30 29 30 29 29 30 31 32 33 34 38 42 45 49 54 56 56 50 45 44 46 49 45 46 46 42 35 39 32 30 25 30 31
23 32 37 39 39 39 38 36 34 30 28 27 26 26 26 26 27 28 30 32 34 37 40 43 48 55 60 61 60 53 48 47 49 46 46 43 40 48 43 34 27 31 32
27 33 37 39 38 35 31 28 24 22 25 27 27 28 29 28 29 29 29 30 30 32 36 41 47 52 58 64 67 66 58 47 48 47 43 45 45 47 46 39 36 35 36
28 34 36 37 35 31 30 26 24 26 25 27 30 29 28 28 31 35 38 35 33 30 29 33 37 43 50 58 64 67 65 57 48 49 45 50 53 48 50 46 39 37 35
30 35 38 35 30 26 23 24 25 26 31 34 35 39 45 48 46 45 45 41 41 41 41 42 45 46 44 44 55 60 61 57 46 51 49 51 57 57 52 47 43 38 33
31 36 33 28 23 21 23 23 30 36 40 41 40 43 46 48 41 38 39 37 35 37 39 40 43 46 46 48 44 46 52 50 49 41 49 49 57 57 52 54 41 38 36
31 31 29 24 21 22 25 35 38 38 39 38 38 41 45 45 43 38 34 33 35 38 40 40 40 41 43 43 47 47 45 43 50 32 33 51 35 46 46 47 41 38 33
30 29 23 22 26 30 35 35 35 35 34 33 33 35 35 40 39 41 40 42 40 38 38 40 45 46 48 52 49 43 27 17 33 30 25 26 25 56 57 31 18 22 25
25 22 21 25 29 30 28 29 31 31 29 28 26 30 34 34 35 39 49 48 43 44 45 47 44 43 46 55 54 31 17 23 8 10 18 23 21 9 13 9 46 51 46
22 20 21 24 25 25 24 23 23 25 27 31 33 31 32 35 38 41 47 50 44 46 47 45 47 39 42 49 48 37 28 30 23 16 22 23 15 16 18 19 29 38 46
17 18 20 21 23 22 22 22 22 25 26 28 31 30 33 35 39 45 49 49 50 43 45 46 49 44 35 38 44 38 27 25 27 28 17 18 14 17 21 20 26 33 45
13 13 17 20 20 20 21 21 23 23 25 27 30 31 34 39 43 47 50 49 48 47 41 42 44 42 41 27 34 34 28 21 25 19 13 8 9 3 12 16 19 26 28
10 12 15 15 14 16 15 18 20 22 26 31 31 34 37 41 43 46 46 47 46 44 41 38 33 35 36 36 26 24 23 22 21 20 18 17 13 12 17 27 32 36 30
6 8 10 10 10 13 14 16 17 22 27 29 32 36 38 42 43 45 46 46 45 45 43 38 31 28 27 30 27 22 24 22 22 25 24 19 15 19 30 28 37 41 45
2 5 7 7 8 11 13 12 16 22 26 28 31 35 39 42 45 47 49 50 51 49 44 35 32 27 23 34 29 30 29 29 29 32 33 35 33 31 31 33 29 34 43
2 4 5 6 10 12 10 13 17 22 24 26 30 35 38 41 43 45 47 50 51 50 49 46 34 25 24 33 30 35 34 36 41 47 52 54 53 49 47 48 48 44 41
7 7 7 8 14 11 12 12 16 19 21 24 28 32 36 38 41 43 45 47 48 48 48 49 44 28 27 24 26 31 33 45 52 55 58 60 58 58 59 56 53 51 48
13 11 11 14 17 10 9 10 14 16 18 22 26 30 33 37 39 41 45 45 46 48 49 51 53 40 23 16 14 24 35 45 50 56 61 58 55 56 62 66 68 66 59
18 15 15 19 18 11 6 6 9 10 15 18 23 29 32 34 37 41 44 44 47 53 52 47 45 47 45 23 15 11 15 36 51 57 60 56 52 66 65 65 67 68 71
24 20 20 22 21 14 7 2 5 8 12 16 21 26 29 31 36 41 43 46 48 46 45 47 46 45 45 46 27 17 17 14 34 48 55 52 49 59 62 73 75 77 78
31 25 23 25 23 19 11 4 2 6 8 15 18 23 27 32 37 39 42 45 45 48 49 48 47 46 45 40 39 26 12 13 29 26 49 51 49 54 56 63 70 74 76
36 30 27 27 26 20 12 7 5 6 7 10 14 20 25 31 33 37 41 43 45 46 45 48 46 44 41 40 37 35 29 26 17 22 34 42 40 43 57 64 66 65 68
39 32 29 29 27 21 13 10 10 10 9 9 11 17 23 25 28 33 38 41 41 44 44 42 41 41 42 41 42 36 28 22 28 15 21 35 33 37 48 61 67 66 62
41 36 33 33 29 22 16 13 14 13 11 9 10 15 18 21 25 32 37 38 40 41 41 43 42 40 38 39 39 41 42 27 25 23 21 24 34 38 40 54 70 72 67
Wind_Direction_850mb
329 339 345 345 343 338 334 330 327 326 323 322 317 311 308 303 299 295 293 291 291 288 284 282 281 285 300 293 283 283 280 269 271 268 258 254 254 248 242 258 269 258 233
339 343 343 344 342 336 333 336 334 333 333 332 334 328 326 320 314 307 300 295 291 288 286 284 283 280 279 282 287 274 273 272 268 264 259 255 251 236 238 261 263 241 220
340 341 342 342 338 337 340 345 340 338 339 337 339 337 337 334 330 323 315 308 299 291 287 284 283 281 279 272 273 277 270 267 270 266 258 249 247 235 246 251 256 237 221
344 343 340 340 338 340 344 344 341 343 349 353 356 355 352 346 337 328 322 318 310 303 299 292 284 279 276 273 269 267 269 268 264 263 258 246 235 245 245 244 243 233 224
344 340 340 340 339 343 345 346 341 2 8 5 0 2 359 352 347 343 336 329 319 313 306 301 296 291 284 277 272 268 263 267 264 260 253 241 233 236 237 239 233 228 232
343 341 338 343 346 347 348 355 4 16 13 11 11 8 4 2 2 1 1 358 355 344 331 314 303 297 290 287 281 272 264 259 264 254 248 242 231 228 233 233 226 231 233
340 343 346 346 349 350 357 1 18 24 23 19 18 15 13 10 8 8 5 7 359 352 348 339 336 331 324 304 290 285 271 256 255 251 241 241 237 229 223 223 224 228 231
344 345 347 346 351 359 12 14 28 27 22 20 17 20 17 11 10 12 12 8 7 3 357 355 352 352 348 340 327 293 285 255 245 257 249 244 234 229 227 222 224 233 236
346 343 350 353 359 10 15 25 29 25 21 19 20 20 17 14 16 11 13 20 24 19 17 12 12 11 6 358 346 336 301 276 234 263 265 255 232 235 215 220 228 241 248
343 346 348 2 13 17 22 26 27 24 24 22 22 21 19 21 21 19 21 26 29 30 28 27 22 22 23 16 3 352 350 314 244 263 278 303 292 220 258 257 266 306 275
339 349 3 15 19 22 28 31 30 27 33 29 27 25 25 26 28 28 30 31 33 34 36 31 26 31 26 26 13 10 359 15 335 269 302 329 336 255 287 317 314 279 275
346 357 14 22 27 27 33 41 40 38 40 42 42 38 35 30 25 29 32 32 35 41 40 35 34 32 32 28 22 33 24 8 23 15 360 353 339 304 285 296 273 260 244
346 11 23 27 33 39 49 50 48 46 44 44 40 35 33 28 25 29 31 30 33 35 37 35 36 29 25 25 26 27 27 29 33 31 32 30 354 310 302 300 288 269 254
357 23 32 31 38 48 56 55 49 44 44 41 37 32 35 33 29 30 31 30 31 31 30 31 33 33 30 18 37 28 39 56 63 66 30 25 59 239 265 282 277 283 288
6 30 35 40 52 63 64 58 53 47 42 39 35 35 33 34 31 29 29 30 31 31 29 29 30 31 39 39 49 42 40 45 35 29 10 350 336 304 289 278 273 271 276
14 48 51 59 71 78 74 70 56 50 42 35 34 35 33 35 35 35 34 33 31 29 30 30 31 33 47 55 41 28 29 22 19 26 25 -0 330 315 299 288 289 288 279
53 81 83 91 103 103 87 69 59 46 36 33 37 41 41 42 41 40 41 40 39 38 36 35 38 54 56 65 64 57 48 38 25 22 11 11 4 350 341 336 311 294 279
167 127 128 130 130 126 91 80 52 43 40 42 46 47 46 46 45 42 42 42 42 41 42 44 47 60 66 68 57 45 32 21 18 14 11 3 357 354 347 343 330 323 314
197 175 170 158 147 131 114 69 52 48 48 53 53 52 50 48 48 47 46 46 45 46 45 47 48 58 65 66 50 43 44 34 28 22 14 7 5 358 358 357 354 348 340
207 195 187 179 169 153 120 66 49 51 60 60 58 56 53 50 50 50 49 49 50 51 50 49 53 54 56 57 53 52 48 34 25 19 14 13 12 14 10 5 2 359 356
210 202 196 192 187 178 148 55 42 55 69 66 63 58 55 53 52 51 51 50 51 51 53 53 49 51 57 71 77 73 43 29 22 19 14 13 15 7 16 17 12 7 3
212 207 202 198 195 190 184 120 63 74 73 69 63 60 57 55 54 53 52 51 50 52 53 55 57 58 51 46 47 37 16 15 12 11 14 16 19 20 19 23 23 20 16
211 207 203 199 194 191 191 189 96 97 85 70 64 60 58 55 53 51 52 52 49 48 48 49 50 53 59 60 62 56 15 355 353 6 13 23 29 27 26 22 21 19 18
206 204 200 192 188 189 196 191 159 155 116 94 75 66 61 57 56 53 53 51 49 49 48 47 46 47 52 55 57 60 58 43 10 351 7 19 22 25 24 18 12 12 14
206 202 194 188 187 191 194 193 168 165 151 116 91 79 69 64 60 58 56 54 52 51 50 51 52 49 48 49 51 51 45 36 33 15 0 16 20 17 16 15 16 14 11
203 200 195 192 193 195 196 195 182 173 165 140 111 87 85 77 69 62 59 54 53 53 52 51 50 50 51 50 51 50 50 42 21 23 6 20 19 13 14 16 19 18 14